Regional Weather Roundup
Issued by NWS

Home | Current Version | Previous Version | Text Only | Print | Product List | Glossary On
Versions: 1 2 3 4 5 6 7 8 9 10 11 12 13 14 15 16 17 18 19 20 21 22 23 24 25 26 27 28 29 30 31 32 33 34 35 36 37 38 39 40 41 42 43 44 45 46 47 48 49 50
000
ASCA44 KEWX 282020
RWRMX

LATIN AMERICA AND CARIBBEAN REGIONAL WEATHER ROUNDUP
NATIONAL WEATHER SERVICE AUSTIN/SAN ANTONIO TX
300 PM CDT SAT MAY 28 2016

NOTE: "FAIR" INDICATED FEW OR NO CLOUDS BELOW 12,000 FEET WITH NO
SIGNIFICANT WEATHER AND/OR OBSTRUCTIONS TO VISIBILITY.

BAJA CALIFORNIA

CITY           SKY/WX    TMP DP  RH WIND       PRES   REMARKS
LORETO         MOSUNNY   82  61  47 NE12      29.81F
LA PAZ         MOSUNNY   95  32  11 S6        29.84F HX  90
MEXICALI       SUNNY     90  46  22 SE15      29.77F
S.J. DEL CABO  SUNNY     88  63  42 SE12      29.85F
TIJUANA        CLOUDY    66  52  59 W8        29.92F

NORTHWESTERN MEXICO

CITY           SKY/WX    TMP DP  RH WIND       PRES   REMARKS
CULIACAN       PTSUNNY   99  68  36 W8        29.83F HX 104
DURANGO        PTSUNNY   84  30  14 SE7       30.13F
GUAYMAS        SUNNY     90  48  24 S10       29.78F
HERMOSILLO     SUNNY     97  23   7 S5        29.84F HX  90
CD. JUAREZ     SUNNY     90  30  12 SW12G23   29.94F
LOS MOCHIS     MOSUNNY   90  46  22 W14       29.85S
OBREGON        MOSUNNY   95  23   7 S9        29.80F

NORTHEASTERN MEXICO

CITY           SKY/WX    TMP DP  RH WIND       PRES   REMARKS
CHIHUAHUA      SUNNY     88  19   8 NE6       30.01
MATAMOROS      PTSUNNY   90  75  62 S16       29.89S HX 100
MONCLOVA         N/A    N/A N/A N/A MISG        N/A
MONTERREY      PTSUNNY   88  68  51 SE10      29.87F HX  91
NUEVO LAREDO   MOSUNNY   93  73  52 S13       29.85F HX 102
PIEDRAS NEGRAS PTSUNNY   93  72  49 SE8       29.88F HX 100
REYNOSA        PTSUNNY   88  70  55 SE12G23   29.87S HX  92
SALTILLO       LGT RAIN  82  70  65 N7        30.10F
TORREON        PTSUNNY   95  34  11 NE6       29.96F HX  90
CD. VICTORIA   SUNNY     91  72  52 S8        29.85F HX  98

WESTERN MEXICO

CITY           SKY/WX    TMP DP  RH WIND       PRES   REMARKS
AGUASCALIENTES PTSUNNY   82  30  15 SW8       30.17F
COLIMA         MOSUNNY   88  70  55 W17       29.92F HX  92
DEL BAJIO      PTSUNNY   88  45  22 CALM      30.19F
GUADALAJARA    MOSUNNY   90  36  14 CALM      30.09F
MANZANILLO     SUNNY     82  75  78 W12       29.80F
MAZATLAN       SUNNY     90  66  45 W10       29.83F HX  92
P. VALLARTA    SUNNY     84  75  74 SW2       29.82F HX  92
URUAPAN        MOSUNNY   82  59  44 S7        30.13F
ZACATECAS      PTSUNNY   81  37  21 CALM      30.22F

CENTRAL MEXICO

CITY           SKY/WX    TMP DP  RH WIND       PRES   REMARKS
CUERNAVACA     SUNNY     88  46  23 CALM      30.04F
MEXICO CITY    SUNNY     79  45  29 NE14      30.27F
MORELIA        MOSUNNY   88  45  22 CALM      30.14F
POZA RICA      MOSUNNY   95  75  52 E7        29.86F HX 107
PUEBLA         MOSUNNY   79  46  31 E8        30.27F
QUERETARO      MOSUNNY   86  48  26 S6        30.21F
S. LUIS POTOSI PTSUNNY   86  43  22 E13G24    30.14F
TAMPICO        PTSUNNY   90  75  62 E12       29.85F HX 100
TOLUCA         MOSUNNY   79  50  36 W7        30.34F

SOUTHERN MEXICO

CITY           SKY/WX    TMP DP  RH WIND       PRES   REMARKS
ACAPULCO       MOSUNNY   88  77  70 SW12      29.82F HX 100
B. DE HUATULCO PTSUNNY   86  79  79 S12       29.92S HX  99
OAXACA         CLOUDY    81  59  47 SE9       30.14F
P. ESCONDIDO   PTSUNNY   84  79  84 SW9       29.94F HX  96
VERACRUZ       SUNNY     93  77  59 E7        29.81F HX 107
ZIHUATANEJO    MOSUNNY   88  75  66 SW8       29.83S HX  97

YUCATAN PENINSULA

CITY           SKY/WX    TMP DP  RH WIND       PRES   REMARKS
CAMPECHE       MOSUNNY  100  59  25 E12       29.80F HX 100
CANCUN         MOSUNNY   88  75  66 E14       29.94R HX  97
CHETUMAL       MOSUNNY   90  79  70 SE17      29.89S HX 105
CD. DEL CARMEN MOSUNNY   95  75  52 N12       29.82F HX 107
COZUMEL        PTSUNNY   86  73  66 SE14      29.92F HX  93
MERIDA         PTSUNNY   99  64  32 NE9       29.85F HX 101
MINATITLAN     MOSUNNY   93  82  70 N12       29.78R HX 117
TAPACHULA      CLOUDY    86  77  74 CALM      29.85F HX  97
TUX. GUTIERREZ MOSUNNY   93  66  40 SE8       29.86F HX  96
VILLAHERMOSA   SUNNY     95  79  59 E15       29.82F HX 112

CENTRAL AMERICA

CITY           SKY/WX    TMP DP  RH WIND       PRES   REMARKS
BELIZE CITY    MOSUNNY   91  79  66 E13       29.89F HX 107
MANAGUA        PTCLDY    95  73  49 CALM      29.80S HX 105

CARIBBEAN

CITY           SKY/WX    TMP DP  RH WIND       PRES   REMARKS
ARUBA          MOSUNNY   90  79  70 E22       29.83S HX 105
CURACAO        MOSUNNY   86  79  79 E12       29.86S HX  99
KINGSTON       MOSUNNY   86  75  70 SE20      29.89F HX  95
NASSAU         MOSUNNY   90  77  66 N5        30.01S HX 102
SAN JUAN       LGT RAIN  84  75  74 S9        29.99F HX  92
SANTO DOMINGO  MOSUNNY   84  75  74 SE5       29.94F HX  92
ST. CROIX      PTSUNNY   81  75  83 SE5       30.01F
ST. KITTS      MOSUNNY   84  75  74 E9        30.00S HX  92
ST. MAARTEN    MOSUNNY   82  77  83 E10       30.00S HX  91
ST. THOMAS     PTSUNNY   82  77  83 SE10      30.00F HX  91

$$




USA.gov is the U.S. government's official web portal to all federal, state and local government web resources and services.